Вернуться в каталог

FENGYUN 1C DEB

АктивенSSO
NORAD 31243·DEBRIS·🇨🇳 China

Запущен May 10, 1999 с Taiyuan Satellite Launch Center

Loading…

Ближайшие Пролёты (ближайшие 24 часа)

TLE

СвежийSource: Space-Track

Эпоха: Sep 11, 2026, 12:52 UTC

1 31243U 99025BLZ 26254.53616761  .00000873  00000-0  52929-3 0  9990
2 31243  98.7267 290.8585 0066489 119.1656 241.6188 14.07763105731457

Отслеживайте FENGYUN 1C DEB в реальном времени с AllMySat

Download on the App Store